Regional Weather Roundup
Issued by NWS

Home | Current Version | Previous Version | Text Only | Print | Product List | Glossary On
Versions: 1 2 3 4 5 6 7 8 9 10 11 12 13 14 15 16 17 18 19 20 21 22 23 24 25 26 27 28 29 30 31 32 33 34 35 36 37 38 39 40 41 42 43 44 45 46 47 48 49 50
000
ASCA42 TJSJ 020411
RWRPR
PUERTO RICO/U.S. VIRGIN ISLANDS HOURLY WEATHER ROUNDUP
NATIONAL WEATHER SERVICE SAN JUAN PR
1200 AM AST THU OCT 02 2014

PRZ001-004-020500-
PUERTO RICO

CITY           SKY/WX    TMP DP  RH WIND       PRES   REMARKS
SAN JUAN LMM   PTCLDY    82  75  78 SE3       30.03F
PONCE          CLEAR     79  75  89 NE6       29.99S
CEIBA          PTCLDY    82  73  74 E5        30.06S
$$

PRZ006-007-020500-
U.S. VIRGIN ISLANDS

CITY           SKY/WX    TMP DP  RH WIND       PRES   REMARKS
$$

HOURLY WEATHER ROUNDUP FOR THE NEWS MEDIA

CITY           SKY/WX    TMP DP  RH WIND       PRES   REMARKS
MIAMI          PTCLDY    83  76  79 W6        29.99S HX  91
ORLANDO        CLEAR     78  74  87 N3        29.99S
NEW YORK       CLOUDY    62  56  80 NE12      30.08S
NEWARK         CLOUDY    63  56  78 NE10      30.08S
CHICAGO        CLOUDY    65  51  60 SE10      29.90F
HARTFORD       LGT RAIN  59  58  96 N7        30.04S
BOSTON         RAIN      56  56 100 NE18      30.11R FOG
DALLAS         PTCLDY    84  66  54 S14       29.77S
PHILADELPHIA   MOCLDY    65  58  78 E5        30.07S



USA.gov is the U.S. government's official web portal to all federal, state and local government web resources and services.